Home   Weather   Yonkers   Past weeks

Flag for USA Past Weather in Yonkers, New York, USA — Yesterday and Last 2 Weeks

Now
45 °F

Overcast.


Feels Like: 41 °F
Forecast: 39 / 55 °F
Wind: 7 mph from Southwest

Location: La Guardia Airport

Current Time: Feb 22, 2017 at 6:12:40 am

Latest Report: Feb 22, 2017 at 4:51 am


Visibility: 10 mi

Pressure: 30.05 "Hg

Humidity: 68%

Dew Point: 35 °F

Location of YonkersLocation

Past Weather in Yonkers — Graph

°F

Yonkers Temperature Yesterday

Maximum temperature yesterday: 47 °F (at 12:51 pm)
Minimum temperature yesterday: 36 °F (at 5:51 am)
Average temperature yesterday: 42 °F

High & Low Weather Summary for the Past Weeks

 TemperatureHumidityPressure
High66 °F (Feb 19, 2:51 pm)97% (Feb 8, 3:04 am)30.39 "Hg (Feb 8, 3:04 am)
Low19 °F (Feb 9, 10:51 pm)21% (Feb 20, 4:51 pm)29.29 "Hg (Feb 15, 3:51 pm)
Average40 °F58%29.85 "Hg
* Reported Feb 7 4:51 am — Feb 22 4:51 am, Yonkers, Weather by CustomWeather, © 2017

Note: Actual official high and low records may vary slightly from our data, if they occured in-between our weather recording intervals... More about our weather records

Advertising

Yonkers Weather History for the Previous 24 Hours

Scroll right to see more
 ConditionsComfort  
Time TempWeatherWind HumidityBarometerVisibility
4:51 am
Wed, Feb 22
45 °FOvercast.7 mph68%30.05 "Hg10 mi
3:51 am45 °FOvercast.7 mph68%30.07 "Hg10 mi
2:51 am45 °FMostly cloudy.10 mph65%30.07 "Hg10 mi
1:51 am45 °FOvercast.8 mph65%30.07 "Hg10 mi
12:51 am45 °FOvercast.12 mph63%30.09 "Hg10 mi
11:51 pm
Tue, Feb 21
45 °FMostly cloudy.10 mph63%30.12 "Hg10 mi
10:51 pm44 °FOvercast.10 mph63%30.14 "Hg10 mi
9:51 pm44 °FPartly cloudy.12 mph63%30.17 "Hg10 mi
8:51 pm44 °FMostly cloudy.9 mph65%30.19 "Hg10 mi
7:51 pm44 °FMostly cloudy.10 mph65%30.20 "Hg10 mi
6:51 pm44 °FMostly cloudy.14 mph60%30.22 "Hg10 mi
5:51 pm44 °FMostly cloudy.13 mph60%30.22 "Hg10 mi
4:51 pm44 °FMore clouds than sun.15 mph58%30.21 "Hg10 mi
3:51 pm46 °FMore clouds than sun.13 mph54%30.23 "Hg10 mi
2:51 pm46 °FMore clouds than sun.12 mph54%30.24 "Hg10 mi
1:51 pm47 °FOvercast.10 mph48%30.26 "Hg10 mi
12:51 pm47 °FPartly sunny.10 mph46%30.30 "Hg10 mi
11:51 am46 °FMore clouds than sun.12 mph46%30.34 "Hg10 mi
10:51 am44 °FPartly sunny.10 mph41%30.36 "Hg10 mi
9:51 am40 °FPartly sunny.8 mph49%30.37 "Hg10 mi
8:51 am39 °FPartly sunny.8 mph48%30.38 "Hg10 mi
7:51 am37 °FPartly sunny.7 mph48%30.39 "Hg10 mi
6:51 am37 °FPartly sunny.9 mph50%30.36 "Hg10 mi
Weather by CustomWeather, © 2017

See weather overviewHow to use our weather pages